Location: Nashville
(36.1660°N, 86.7840°W)
Time: 16:29:27
(UTC-06:00)

Tiangong - Pass Details

Date: 30 November 2022
Orbit: 383 x 386 km, 41.5° (Epoch: 28 January)

Event Time Altitude Azimuth Distance (km) Brightness Sun altitude
Rises 18:40:55 0° 267° (W) 2,260 3.1 -25.4°
Reaches altitude 10° 18:43:03 10° 276° (W) 1,409 1.7 -25.8°
Enters shadow 18:44:22 21° 288° (WNW) 937 0.4 -26.1°
